Regional Weather Roundup
Issued by NWS

Home | Current Version | Previous Version | Text Only | Print | Product List | Glossary On
Versions: 1 2 3 4 5 6 7 8 9 10 11 12 13 14 15 16 17 18 19 20 21 22 23 24 25 26 27 28 29 30 31 32 33 34 35 36 37 38 39 40 41 42 43 44 45 46 47 48 49 50
000
ASUS43 KMKX 262200
RWRWI

WISCONSIN REGIONAL WEATHER ROUNDUP
NATIONAL WEATHER SERVICE MILWAUKEE/SULLIVAN WI
400 PM CST WED NOV 26 2014

NOTE: "FAIR" INDICATES FEW OR NO CLOUDS BELOW 12,000 FEET WITH NO
SIGNIFICANT WEATHER AND/OR OBSTRUCTIONS TO VISIBILITY.

WIZ001-002-006>008-014>016-023>028-262300-
NORTHWEST WISCONSIN

CITY           SKY/WX    TMP DP  RH WIND       PRES   REMARKS
SUPERIOR ARPT  CLOUDY    20   9  61 N8        30.27R WCI  10
ASHLAND        CLOUDY    22  15  75 NW9       30.24R WCI  12
HAYWARD        CLOUDY    21  16  81 VRB5      30.21R WCI  15
SIREN          MOCLDY    24  15  68 N7        30.23R WCI  16
CUMBERLAND     CLOUDY    23  16  74 N8        30.19R WCI  14
RICE LAKE      CLOUDY    25  17  71 N8        30.21R WCI  16
CHETEK         CLOUDY    25  17  74 NW6       30.19R WCI  18
LADYSMITH      CLOUDY    25  20  83 N5        30.19R WCI  19
EAU CLAIRE     LGT SNOW  24  20  84 NW5       30.20R FOG     WCI  18
MENOMONIE      LGT SNOW  26  22  85 NW5       30.20R WCI  20
NEW RICHMOND   CLOUDY    25  17  73 N9        30.23R WCI  15
OSCEOLA        CLOUDY    26  18  71 N7        30.26R WCI  18
$$

WIZ003>005-009-010-017-018-262300-
NORTH CENTRAL WISCONSIN

CITY           SKY/WX    TMP DP  RH WIND       PRES   REMARKS
MANITOWISH WTR LGT SNOW  21  19  91 NW6       30.12R WCI  13
ARBOR VITAE    LGT SNOW  23  19  85 NW5       30.12R WCI  17
WOODRUFF       LGT SNOW  23  19  85 NW5       30.12R WCI  17
RHINELANDER    LGT SNOW  22  18  85 CALM      30.12R FOG
EAGLE RIVER    LGT SNOW  22  17  81 CALM      30.10S
LAND O LAKES   LGT SNOW  23  19  87 CALM      30.11R
PHILLIPS       FLURRIES  22  18  85 NW5       30.14R WCI  16
TOMAHAWK       LGT SNOW  23  19  85 CALM      30.13S
MEDFORD        LGT SNOW  23  19  87 NW3       30.14R VSB 1
MERRILL        LGT SNOW  24  19  80 CALM      30.14R
$$

WIZ029-030-035-036-043>047-262300-
CENTRAL WISCONSIN

CITY           SKY/WX    TMP DP  RH WIND       PRES   REMARKS
WAUSAU         LGT SNOW  24  19  81 W7        30.13R WCI  16
MOSINEE        MOCLDY    23  21  93 NW5       30.15R WCI  17
MARSHFIELD     CLOUDY    26  16  65 NW8       30.15R WCI  18
STEVENS POINT  MOCLDY    22  18  86 CALM      30.16R
WAUPACA        MOCLDY    24  19  80 NW3       30.17R
WAUTOMA        NOT AVBL
WISC RAPIDS    CLOUDY    25  15  66 N6        30.18R WCI  18
CAMP DOUGLAS   NOT AVBL
$$

WIZ011>013-019>022-031-037>040-048>050-262300-
NORTHEAST WISCONSIN

CITY           SKY/WX    TMP DP  RH WIND       PRES   REMARKS
ANTIGO         CLOUDY    21  18  90 CALM      30.11S
SHAWANO        MOCLDY    23  18  79 CALM      30.17R
OCONTO         PTCLDY    22  18  85 CALM      30.18R
STURGEON BAY   MOCLDY    23  16  74 CALM      30.16S
GREEN BAY      MOCLDY    22  17  81 NW5       30.18R HAZE    WCI  16
MANITOWOC      CLOUDY    27  21  80 N9        30.17R WCI  17
APPLETON       MOCLDY    21  19  93 NW7       30.16R FOG     WCI  13
CLINTONVILLE   MOCLDY    21  18  86 NW3       30.17R
OSHKOSH        MOCLDY    22  17  81 MISG      30.16R HAZE
$$

WIZ032>034-041-042-053>061-262300-
SOUTHWEST WISCONSIN

CITY           SKY/WX    TMP DP  RH WIND       PRES   REMARKS
LA CROSSE      CLOUDY    28  21  75 NW13      30.19R WCI  17
SPARTA         CLOUDY    27  18  67 NE6       30.18R WCI  20
VIROQUA        CLOUDY    26  20  79 N3        30.14R
BOSCOBEL       CLOUDY    25  19  78 VRB3      30.19R
PRAIRIE DU CHI CLOUDY    26  20  79 N7        30.18R HAZE    WCI  19
PLATTEVILLE    CLOUDY    26  23  88 CALM      30.13R
$$

WIZ056-057-062-063-064-067-068-262300-
SOUTH CENTRAL WISCONSIN

CITY           SKY/WX    TMP DP  RH WIND       PRES   REMARKS
REEDSBURG      CLOUDY    22  18  83 CALM      30.15S
BARABOO/DELLS  MOCLDY    20  17  87 CALM      30.14S
LONE ROCK      NOT AVBL
MINERAL POINT  CLOUDY    27  23  86 N8        30.12R FOG     WCI  18
MADISON        CLOUDY    20  16  84 N6        30.16R FOG     WCI  12
MIDDLETON      CLOUDY    23  19  84 N8        30.16R WCI  13
WATERTOWN      CLOUDY    19  19  97 W5        30.15R FOG     WCI  12
MONROE         CLOUDY    27  23  86 NE8       30.11R WCI  18
JANESVILLE     NOT AVBL
$$

WIZ051-052-058>065-066-070>072-262300-
SOUTHEAST WISCONSIN

CITY           SKY/WX    TMP DP  RH WIND       PRES   REMARKS
MILWAUKEE      CLOUDY    30  21  69 CALM      30.13R
WAUKESHA       CLOUDY    27  21  80 W5        30.14R WCI  21
MILWAUKEE/TIMM CLOUDY    28  19  69 CALM      30.14R
RACINE         CLOUDY    29  22  75 NW3       30.15R
BURLINGTON     CLOUDY    24  21  88 N3        30.13R
KENOSHA        CLOUDY    28  23  81 N6        30.12S HAZE    WCI  22
FOND DU LAC    MOCLDY    22  17  81 N5        30.16R WCI  16
SHEBOYGAN      CLOUDY    24  19  81 N7        30.15R WCI  16
WEST BEND      CLOUDY    28  21  74 N5        30.13R WCI  23
JUNEAU         CLOUDY    23  19  83 NW5       30.15R WCI  17
$$

LSZ147-162-262300-
LAKE SUPERIOR

STATION/POSITION TIME  TEMP    WIND        PRES    WAVE
                       AIR SEA DIR/SP/G            HT/PER
                 (UTC) (F)     (DEG/KT/KT) (MB)    (FT/S)
DEVILS ISLAND    2100   23     350/ 15/ 17 1024.6R
PORT WING        2100   23     330/ 11/ 16 1024.0R
SAXON HARBOR     2100   26     330/ 13/ 15 1022.4R
$$

LMZ867-665-643>646-262300-
LAKE MICHIGAN

STATION/POSITION TIME  TEMP    WIND        PRES    WAVE
                       AIR SEA DIR/SP/G            HT/PER
                 (UTC) (F)     (DEG/KT/KT) (MB)    (FT/S)
CHAMBERS ISLAND  2100   24     230/  2/  4 1021.7R
N MID LAKE BUOY  2050   28 42  300/  4/  6 1021.9R   1/ 4
NORTHPORT PIER   2100   26     290/  3/ 11 1021.3R
SISTER BAY       2043          330/  3/  6   N/A
KEWAUNEE LAKESHO 2100   25     320/  6/  9 1020.4R
SHEBOYGAN LAKESH 2100   26 37  330/  7/  8 1022.1R
PORT WASHINGTON  2100   31      20/  4/  7 1021.3
MILWAUKEE LAKESH 2100   30      10/  3/  5   N/A
S MID LAKE BUOY  2050   31 42  130/  4/  8 1020.8R   1/ 4
KENOSHA   LAKESH 2100   29     330/  5/  8 1020.0S
$$

TC  - TEMPERATURE IN CELSIUS
VSB - VISIBILITY IN STATUTE MILES
WCI - WIND CHILL INDEX
HX  - HEAT INDEX



USA.gov is the U.S. government's official web portal to all federal, state and local government web resources and services.